User: anonymous   Login
Location: Unspecified
(0.0000°N, 0.0000°E)
Time: 02:52:59
(UTC+00:00)
Language:

Radcal - Orbit

View from above orbital plane
View from above orbital plane
View from above satellite
View from above satellite

Ground track
Ground track

The orbit data is extracted from the following two-line orbital elements,

1 22698U 93041A   17232.78247090  .00000048  00000-0  15471-4 0  9990
2 22698  89.5476 229.8646 0086703 282.0150  77.1335 14.23350395254009
Epoch (UTC): 20 August 2017 18:46:45
Eccentricity: 0.0086703
inclination: 89.5476°
perigee height: 751 km
apogee height: 876 km
right ascension of ascending node: 229.8646°
argument of perigee: 282.0150°
revolutions per day: 14.23350395
mean anomaly at epoch: 77.1335°
orbit number at epoch: 25400

The dashed part of the orbit path shows where the satellite is in the earth's shadow,  

DLR